SCP
0 0 0 0 0 0 0 0 0 0 0 0 0 0 0 0 0 0 0 0 0 0 0 0 0 0 0 0 0 0 0 0 0 0 0 0 0 0 0 0 0 0 0
0 0 0 0 0 0 0 0 0 0 0 0 0 0 0 0 0 0 0 0 0 0 0 0 0 0 0 0 0 0 0 0 0 0 0 0 0 0 0 0 0 0 0
0 0 0 0 0 0 0 0 0 0 0 0 0 0 0 0 0 0 0 0 0 0 0 0 0 0 0 0 0 0 0 0 0 0 0 0 0 0 0 0 0 0 0
0 0 0 0 0 0 0 0 0 0 0 0 0 0 0 0 0 0 0 0 0 0 0 0 0 0 0 0 0 0 0 0 0 0 0 0 0 0 0 0 0 0 0
0 0 0 0 0 0 0 0 0 0 0 0 0 0 0 0 0 0 0 0 0 0 0 0 0 0 0 0 0 0 0 0 0 0 0 0 0 0 0 0 0 0 0
0 0 0 0 0 0 0 0 0 0 0 0 0 0 0 0 0 0 0 0 0 0 0 0 0 0 0 0 0 0 0 0 0 0 0 0 0 0 0 0 0 0 0
0 0 0 0 0 0 0 0 0 0 0 0 0 0 0 0 0 0 0 0 0 0 0 0 0 0 0 0 0 0 0 0 0 0 0 0 0 0 0 0 0 0 0
0 0 0 0 0 0 0 0 0 0 0 0 0 0 0 0 0 0 0 0 0 0 0 0 0 0 0 0 0 0 0 0 0 0 0 0 0 0 0 0 0 0 0
0 0 0 0 0 0 0 0 0 0 0 0 0 0 0 0 0 0 0 0 0 0 0 0 0 0 0 0 0 0 0 0 0 0 0 0 0 0 0 0 0 0 0
0 0 0 0 0 0 0 0 0 0 0 0 0 0 0 0 0 0 0 0 0 0 0 0 0 0 0 0 0 0 0 0 0 0 0 0 0 0 0 0 0 0 0
0 0 0 0 0 0 0 0 0 0 0 0 0 0 0 0 0 0 0 0 0 0 0 0 0 0 0 0 0 0 0 0 0 0 0 0 0 0 0 0 0 0 0
0 0 0 0 0 0 0 0 0 0 0 0 0 0 0 0 0 0 0 0 0 0 0 0 0 0 0 0 0 0 0 0 0 0 0 0 0 0 0 0 0 0 0
0 0 0 0 0 0 0 0 0 0 0 0 0 0 0 0 0 0 0 0 0 0 0 0 0 0 0 0 0 0 0 0 0 0 0 0 0 0 0 0 0 0 0
0 0 0 0 0 0 0 0 0 0 0 0 0 0 0 0 0 0 0 0 0 0 0 0 0 0 0 -0 0 0 0 0 0 0 0 0 0 0 0 0 0 0 0
0 0 0 0 0 0 0 0 0 0 0 0 0 0 0 0 0 0 0 0 0 0 0 0 0 0 0 -0 0 0 0 0 0 0 0 0 0 0 0 0 0 0 0
0 0 0 0 0 0 0 0 0 0 0 0 0 0 0 0 0 0 0 0 0 0 0 0 0 0 0 0 0 0 0 0 0 0 0 0 0 0 0 0 0 0 0
0 0 0 0 0 0 0 0 0 0 0 0 0 0 0 0 0 0 0 0 0 0 0 0 0 0 0 0 0 0 0 0 0 0 0 0 0 0 0 0 0 0 0
0 0 0 0 0 0 0 0 0 0 0 0 0 0 0 0 0 0 0 0 0 0 0 0 0 0 0 0 0 0 0 0 0 0 0 0 0 0 0 0 0 0 0
0 0 0 0 0 0 0 0 0 0 0 0 0 0 0 0 -0 0 0 0 0 0 0 0 0 0 0 0 0 0 0 0 0 0 0 0 0 0 0 0 0 0 0
0 0 0 0 0 0 0 0 0 0 0 0 0 0 0 0 0 0 0 0 0 0 0 0 0 0 0 0 0 0 0 0 0 0 0 0 0 0 0 0 0 0 0
0 0 0 0 0 0 0 0 0 0 0 0 0 0 0 0 0 0 0 0 0 0 0 0 0 0 0 0 0 0 0 0 0 0 0 0 0 0 0 0 0 0 0
0 0 0 0 0 0 0 0 0 0 0 0 0 0 0 0 0 0 0 0 0 0 0 0 0 0 0 0 0 0 0 0 0 0 0 0 0 0 0 0 0 0 0
0 0 0 0 0 0 0 0 0 0 0 0 0 0 0 0 0 0 0 0 0 0 0 0 0 0 0 0 0 0 0 0 0 0 0 0 0 0 0 0 0 0 0
0 0 0 0 0 0 0 0 0 0 0 0 0 0 0 0 0 0 0 0 0 0 0 0 0 0 0 0 0 0 0 0 0 0 0 0 0 0 0 0 0 0 0
0 0 0 0 0 0 0 0 0 0 0 0 0 0 0 0 0 0 0 0 0 0 0 0 0 0 0 0 0 0 0 0 0 0 0 0 0 0 0 0 0 0 0
0 0 0 0 0 0 0 0 0 0 0 0 0 0 0 0 0 0 0 0 0 0 0 0 0 0 0 0 0 0 0 0 0 0 0 0 0 0 0 0 0 0 0
Wind_Speed
6 5 5 4 4 3 3 3 3 3 3 3 2 3 4 3 4 3 3 2 3 2 3 4 4 3 3 3 3 3 3 3 3 1 1 1 3 3 2 2 3 3 3
6 6 5 5 5 5 4 3 2 3 3 3 3 3 3 3 4 4 3 3 3 3 3 3 3 3 3 3 2 3 2 3 3 2 1 1 2 2 1 1 2 3 2
6 6 6 5 5 5 5 3 3 2 2 3 3 3 3 3 3 3 3 3 3 3 3 3 3 4 3 2 3 3 2 2 2 2 1 1 1 1 2 2 2 2 2
6 6 6 6 5 5 5 4 4 3 2 2 3 3 3 3 3 3 3 3 3 3 3 4 4 4 4 3 3 3 3 2 2 2 1 1 1 1 2 1 1 1 1
7 6 6 6 5 5 4 4 3 3 3 2 2 3 3 3 3 3 2 2 3 3 4 4 5 7 8 5 4 3 3 2 2 2 1 1 1 2 1 1 1 1 2
7 6 6 6 6 5 5 4 3 2 2 3 3 3 4 3 6 6 4 3 2 3 3 3 4 5 5 6 7 6 5 3 2 1 1 1 1 1 1 1 1 2 2
8 7 6 6 6 6 5 5 4 3 3 3 3 3 3 4 5 4 4 2 2 2 2 2 2 4 4 2 2 2 3 3 2 2 1 1 1 1 1 1 1 1 1
8 7 7 6 6 6 6 5 5 3 3 3 3 3 3 3 3 2 1 1 1 1 1 1 2 3 2 3 1 1 1 1 1 2 2 1 1 1 1 1 1 1 1
9 8 8 8 7 6 6 6 5 4 4 4 3 3 3 3 4 3 2 1 1 1 1 2 2 3 3 4 2 1 1 0 1 3 3 2 1 1 1 2 2 1 1
8 8 8 8 8 7 7 5 4 4 4 4 3 3 4 4 5 5 4 1 2 1 1 2 3 4 3 3 1 1 0 1 0 1 1 2 3 2 2 1 1 0 0
7 7 6 7 7 7 6 5 4 4 4 4 4 3 3 4 6 7 5 2 1 1 1 2 2 5 4 3 2 1 1 1 1 1 1 1 1 1 1 2 2 2 1
7 7 7 6 6 6 5 5 4 5 4 4 3 3 2 3 5 6 7 5 2 1 1 1 2 5 5 4 2 2 1 1 1 1 1 1 1 1 1 1 2 2 2
7 7 6 6 5 6 6 5 4 4 4 3 3 3 3 3 4 7 8 6 4 1 0 2 3 3 3 2 3 4 2 1 1 1 2 2 2 2 1 1 1 1 2
7 6 5 5 5 5 4 4 4 4 4 3 3 3 3 2 2 3 3 4 4 3 2 2 3 3 2 2 3 3 3 3 3 3 3 2 2 1 1 1 2 2 2
6 5 5 4 5 5 4 2 3 3 4 4 3 2 3 3 3 5 4 3 3 4 3 2 1 2 2 2 2 3 3 3 3 3 3 3 2 2 2 2 2 2 2
5 4 4 4 4 4 4 3 4 3 4 4 3 2 2 3 4 5 5 4 4 5 3 2 2 3 3 3 3 3 3 3 3 3 3 3 3 3 3 2 2 3 3
5 4 3 4 4 4 4 4 3 2 4 5 4 3 3 3 4 4 4 4 4 5 3 3 3 3 3 3 3 3 3 3 3 3 3 3 3 3 3 3 3 3 3
4 4 4 3 3 3 3 3 3 4 2 1 1 2 3 3 3 3 4 4 2 2 2 2 3 3 2 2 2 2 2 2 2 2 2 2 3 3 3 3 3 3 3
4 3 3 3 3 3 3 3 3 3 3 2 2 2 3 3 3 3 5 2 2 3 3 3 3 2 2 2 2 1 1 2 2 1 2 2 2 2 3 3 3 4 4
4 5 4 3 3 3 3 3 2 3 3 3 2 2 3 3 2 2 2 2 2 2 2 2 2 2 2 2 1 1 2 2 2 2 2 2 2 2 3 3 3 3 3
3 4 4 3 2 2 2 2 2 2 2 2 2 3 5 3 3 3 3 3 2 2 2 1 2 2 1 1 1 2 2 2 2 2 2 2 2 2 2 3 3 3 3
3 3 3 2 2 2 2 2 2 2 2 2 1 2 4 2 1 1 2 2 2 1 1 1 1 1 1 1 1 1 1 1 1 1 2 2 2 2 2 3 3 3 3
3 3 3 3 3 3 2 2 2 2 1 1 1 2 2 1 1 1 1 1 1 1 1 0 0 1 1 0 0 0 0 1 1 1 1 2 2 2 2 3 4 4 4
3 3 3 3 2 2 2 2 2 1 1 1 1 1 1 1 0 0 0 0 0 0 0 0 0 0 1 1 1 1 1 1 1 1 1 2 2 3 3 3 4 5 5
3 3 3 2 2 2 2 2 2 2 2 2 1 1 1 1 1 1 1 1 1 1 1 1 1 1 1 2 2 1 2 3 2 2 1 1 2 3 3 4 4 5 5
3 3 3 2 2 2 2 2 2 2 2 2 2 2 2 2 1 1 1 1 1 1 1 1 2 2 2 2 2 2 3 2 2 3 2 2 3 3 4 4 5 5 6
Wind_Direction
160 147 142 137 140 137 118 115 124 132 138 134 131 122 119 116 107 93 91 73 84 90 85 85 75 56 56 42 39 50 57 83 101 76 92 89 76 73 49 63 110 93 80
153 149 152 148 154 144 147 163 168 142 139 131 117 109 104 98 101 102 97 84 69 72 78 91 95 83 67 49 46 58 63 78 102 113 86 66 79 93 71 46 81 95 104
156 157 153 154 163 158 163 157 147 136 140 138 126 119 116 118 122 124 112 103 90 77 68 71 79 83 76 65 63 61 51 69 83 97 83 65 68 70 53 32 58 61 100
163 164 159 163 165 159 148 154 156 152 142 130 122 122 117 110 103 106 110 110 104 97 81 67 56 61 60 55 61 57 56 55 67 77 78 65 57 44 68 39 21 10 44
166 170 163 159 154 142 136 142 141 141 137 122 113 105 94 85 67 64 72 100 105 100 93 92 86 85 76 67 63 51 52 50 54 64 62 49 35 38 26 353 37 3 12
169 171 158 157 151 148 149 149 142 137 123 110 99 92 92 86 79 66 54 33 78 108 119 125 124 110 100 90 83 77 75 72 61 48 36 62 38 47 37 24 42 31 340
170 170 161 160 153 154 153 146 141 137 118 109 104 100 104 107 104 85 63 28 32 67 90 115 124 126 132 132 122 108 68 65 91 109 75 24 37 24 56 15 9 15 250
172 171 162 157 154 154 153 155 155 151 142 138 138 132 127 134 139 127 95 328 349 63 97 115 113 119 122 111 123 139 127 72 110 111 109 79 76 35 70 198 242 298 307
172 169 164 161 159 161 164 168 164 161 160 159 157 158 156 160 177 173 164 238 222 205 149 91 97 102 109 103 85 108 120 152 136 143 147 155 131 1 23 37 9 30 324
169 166 163 163 163 168 171 169 159 158 162 158 162 170 175 173 183 185 188 221 224 198 148 118 107 118 108 110 106 83 156 252 144 126 218 250 242 249 245 182 185 184 284
155 154 156 159 163 165 165 162 159 156 158 165 171 175 181 174 174 184 186 200 224 199 165 152 147 144 136 139 139 151 221 256 290 244 238 246 242 224 209 202 189 171 189
145 150 156 159 162 157 151 156 156 153 159 173 178 179 181 171 166 186 189 200 212 198 177 128 147 157 160 171 181 214 266 328 315 304 287 271 261 258 234 202 206 206 204
139 142 149 149 146 142 148 157 155 155 163 180 183 188 186 175 172 178 189 198 209 208 149 136 147 162 174 195 219 232 245 244 246 256 257 253 235 225 218 241 280 263 270
139 142 145 145 142 141 145 156 160 169 175 181 186 195 186 170 160 166 180 188 192 200 213 204 191 185 203 233 234 235 227 222 214 227 242 253 259 255 243 222 234 254 274
140 146 147 145 147 147 143 148 162 166 169 174 185 178 169 177 189 169 165 175 182 188 178 173 180 189 208 226 231 228 220 216 224 232 238 251 255 252 250 236 228 243 252
139 144 144 143 144 143 138 118 71 93 115 129 119 127 140 149 159 160 162 165 176 173 159 184 208 213 218 220 221 227 223 222 224 223 229 232 234 238 249 250 233 229 246
141 143 140 145 148 150 149 146 137 82 65 73 88 100 121 123 123 145 153 155 166 159 171 211 219 222 227 227 226 226 232 233 224 222 227 229 228 234 241 246 247 247 250
133 132 130 132 137 144 147 148 147 150 149 145 113 141 142 140 133 139 140 124 135 178 208 218 226 227 226 227 231 234 240 250 249 243 239 243 239 239 243 246 245 247 252
126 126 129 130 134 137 138 140 143 147 150 152 142 149 165 148 125 134 145 160 195 209 216 225 229 228 227 226 229 231 233 241 248 241 245 255 259 256 256 253 250 257 256
116 121 122 126 133 136 140 142 146 149 153 155 155 149 141 138 152 170 196 219 225 231 227 230 234 233 225 221 224 231 240 245 245 245 248 251 255 256 261 265 266 268 263
120 129 133 130 127 127 132 141 143 144 146 139 146 148 153 173 184 182 193 214 228 238 240 235 244 249 242 233 232 240 242 248 247 251 257 262 264 267 269 268 270 268 271
117 120 125 121 112 107 110 109 105 109 119 130 130 137 155 164 175 178 191 209 225 242 251 239 254 261 247 235 238 252 264 270 271 270 278 286 286 282 280 278 278 280 280
114 114 113 108 104 106 102 93 97 104 111 118 122 120 143 177 198 194 195 201 206 228 243 236 234 282 307 312 316 142 289 300 306 327 321 308 301 296 294 290 289 291 288
103 107 110 112 109 109 110 106 104 103 102 99 94 106 127 166 207 81 46 38 64 283 313 13 355 334 355 13 25 51 52 8 2 343 330 308 298 291 290 290 290 292 292
83 90 96 98 101 102 100 93 89 82 77 74 68 69 69 63 39 20 24 30 23 10 7 14 12 27 39 42 44 50 46 46 38 10 343 312 297 296 295 294 290 289 288
78 80 80 81 81 83 87 88 83 76 72 67 59 54 52 46 31 18 23 29 16 5 5 8 19 27 21 33 54 54 38 27 5 343 321 285 279 282 288 288 289 290 288